Weather History for Erwin, NC

Change the Weather History Date:

Monday, August 18, 2014

  Actual Average Record
Temperature  
Mean Temperature 82 °F -  
Max Temperature 90 °F 88 °F 103 °F (1988)
Min Temperature 73 °F 67 °F 53 °F (1979)
Cooling Degree Days 16    
Growing Degree Days 32 (Base 50)    
Moisture  
Dew Point 71 °F    
Average Humidity 75    
Maximum Humidity 96    
Minimum Humidity 49    
Precipitation  
Precipitation 0.00 in - - ()
Sea Level Pressure  
Sea Level Pressure 29.87 in    
Wind  
Wind Speed 1 mph (SSW)    
Max Wind Speed 10 mph    
Max Gust Speed -    
Visibility 10 miles    
Events      
Averages and records for this station are not official NWS values.
T = Trace of Precipitation, MM = Missing Value Source: NWS Daily Summary

Daily Weather History Graph

Daily Weather History Graph

Search for Another Location

Airport:

Trip Planner

Search our weather history database for the weather conditions in past years. The results will help you decide how hot, cold, wet, or windy it might be!

Date:

Astronomy

Aug. 18, 2014 Rise Set
Actual Time 6:36 AM EDT 8:00 PM EDT
Civil Twilight 6:09 AM EDT 8:26 PM EDT
Nautical Twilight 5:37 AM EDT 8:58 PM EDT
Astronomical Twilight 5:04 AM EDT 9:32 PM EDT
Moon 12:45 AM EDT (8/18) 2:58 PM EDT (8/18)
Length of Visible Light 14h 17m
Length of Day
13h 23m
Last Quarter, 38% of the Moon is Illuminated
Aug 18
Last Quarter
Aug 25
New
Sep 2
First Quarter
Sep 8
Full
Sep 15
Last Quarter

Hourly Weather History & Observations

Time (EDT) Temp. Heat Index Dew Point Humidity Pressure Visibility Wind Dir Wind Speed Gust Speed Precip Events Conditions
12:15 AM 76.6 °F - 74.3 °F 92% 29.96 in 10.0 mi Calm Calm - N/A   Clear
12:35 AM 76.1 °F - 74.3 °F 94% 29.96 in 10.0 mi Calm Calm - N/A   Clear
12:55 AM 76.1 °F - 74.7 °F 95% 29.96 in 10.0 mi Calm Calm - N/A   Clear
1:15 AM 75.6 °F - 74.5 °F 96% 29.95 in 10.0 mi Calm Calm - N/A   Clear
1:35 AM 76.1 °F - 73.8 °F 92% 29.95 in 10.0 mi Calm Calm - N/A   Clear
1:55 AM 75.6 °F - 73.0 °F 92% 29.94 in 10.0 mi Calm Calm - N/A   Clear
2:15 AM 75.7 °F - 72.3 °F 89% 29.94 in 10.0 mi Calm Calm - N/A   Mostly Cloudy
2:35 AM 75.4 °F - 72.9 °F 92% 29.94 in 10.0 mi Calm Calm - N/A   Overcast
2:55 AM 75.6 °F - 72.3 °F 90% 29.93 in 10.0 mi Calm Calm - N/A   Overcast
3:15 AM 75.2 °F - 72.5 °F 91% 29.92 in 10.0 mi Calm Calm - N/A   Scattered Clouds
3:35 AM 75.2 °F - 72.5 °F 91% 29.92 in 10.0 mi Calm Calm - N/A   Scattered Clouds
3:55 AM 74.8 °F - 72.5 °F 92% 29.92 in 10.0 mi Calm Calm - N/A   Scattered Clouds
4:15 AM 74.5 °F - 72.7 °F 94% 29.93 in 10.0 mi Calm Calm - N/A   Scattered Clouds
4:35 AM 74.5 °F - 72.5 °F 94% 29.93 in 10.0 mi Calm Calm - N/A   Mostly Cloudy
4:55 AM 74.3 °F - 72.1 °F 93% 29.92 in 10.0 mi Calm Calm - N/A   Scattered Clouds
5:15 AM 74.5 °F - 72.5 °F 94% 29.92 in 10.0 mi Calm Calm - N/A   Clear
5:35 AM 74.1 °F - 72.1 °F 94% 29.92 in 10.0 mi Calm Calm - N/A   Clear
5:55 AM 73.4 °F - 72.0 °F 95% 29.92 in 7.0 mi Calm Calm - N/A   Clear
6:15 AM 73.9 °F - 71.6 °F 92% 29.92 in 10.0 mi Calm Calm - N/A   Clear
6:35 AM 73.8 °F - 71.6 °F 93% 29.92 in 10.0 mi Calm Calm - N/A   Clear
6:55 AM 73.6 °F - 71.1 °F 92% 29.92 in 10.0 mi Calm Calm - N/A   Clear
7:15 AM 73.6 °F - 71.1 °F 92% 29.92 in 7.0 mi SSE 3.5 mph - N/A   Clear
7:35 AM 73.8 °F - 71.6 °F 93% 29.92 in 7.0 mi Calm Calm - N/A   Clear
7:55 AM 73.8 °F - 71.6 °F 93% 29.92 in 7.0 mi Calm Calm - N/A   Scattered Clouds
8:15 AM 74.7 °F - 72.0 °F 91% 29.92 in 7.0 mi South 4.6 mph - N/A   Scattered Clouds
8:35 AM 75.6 °F - 71.6 °F 87% 29.92 in 7.0 mi South 4.6 mph - N/A   Clear
8:55 AM 75.7 °F - 71.4 °F 86% 29.92 in 7.0 mi South 4.6 mph - N/A   Clear
9:15 AM 76.1 °F - 71.4 °F 85% 29.91 in 7.0 mi South 3.5 mph - N/A   Clear
9:35 AM 77.4 °F - 71.4 °F 82% 29.91 in 7.0 mi SW 3.5 mph - N/A   Clear
9:55 AM 78.3 °F - 70.2 °F 76% 29.91 in 10.0 mi South 4.6 mph - N/A   Clear
10:15 AM 79.0 °F - 70.7 °F 76% 29.91 in 10.0 mi SW 3.5 mph - N/A   Clear
10:35 AM 79.7 °F - 70.9 °F 74% 29.91 in 10.0 mi South 3.5 mph - N/A   Clear
10:55 AM 81.1 °F 85.2 °F 71.2 °F 72% 29.91 in 10.0 mi WSW 3.5 mph - N/A   Scattered Clouds
11:15 AM 83.3 °F 87.9 °F 71.1 °F 66% 29.91 in 10.0 mi SW 3.5 mph - N/A   Scattered Clouds
11:35 AM 84.4 °F 89.0 °F 70.7 °F 63% 29.91 in 10.0 mi Calm Calm - N/A   Scattered Clouds
11:55 AM 84.6 °F 89.1 °F 70.3 °F 62% 29.91 in 10.0 mi SW 3.5 mph - N/A   Clear
12:15 PM 85.1 °F 89.8 °F 70.5 °F 61% 29.90 in 10.0 mi Calm Calm - N/A   Clear
12:35 PM 86.0 °F 90.4 °F 69.4 °F 58% 29.89 in 10.0 mi WSW 3.5 mph - N/A   Clear
12:55 PM 87.8 °F 92.2 °F 69.3 °F 54% 29.89 in 10.0 mi West 3.5 mph - N/A   Clear
1:15 PM 87.4 °F 92.3 °F 70.2 °F 56% 29.88 in 10.0 mi West 3.5 mph - N/A   Clear
1:35 PM 86.7 °F 91.7 °F 70.2 °F 58% 29.87 in 10.0 mi Calm Calm - N/A   Scattered Clouds
1:55 PM 87.6 °F 93.1 °F 70.9 °F 57% 29.87 in 10.0 mi Calm Calm - N/A   Mostly Cloudy
2:15 PM 86.5 °F 92.5 °F 71.4 °F 61% 29.86 in 10.0 mi Calm Calm - N/A   Mostly Cloudy
2:35 PM 87.4 °F 92.7 °F 70.5 °F 57% 29.85 in 10.0 mi Calm Calm - N/A   Scattered Clouds
2:55 PM 89.2 °F 95.9 °F 71.6 °F 56% 29.84 in 10.0 mi Calm Calm - N/A   Scattered Clouds
3:15 PM 89.6 °F 96.2 °F 71.6 °F 55% 29.82 in 10.0 mi Calm Calm - N/A   Scattered Clouds
3:35 PM 89.6 °F 96.2 °F 71.4 °F 55% 29.81 in 10.0 mi SW 5.8 mph - N/A   Scattered Clouds
3:55 PM 90.1 °F 94.9 °F 69.4 °F 50% 29.80 in 10.0 mi SW 4.6 mph - N/A   Scattered Clouds
4:15 PM 89.6 °F 94.7 °F 70.0 °F 52% 29.79 in 10.0 mi SW 3.5 mph - N/A   Clear
4:35 PM 90.1 °F 94.9 °F 69.4 °F 50% 29.80 in 10.0 mi WSW 5.8 mph - N/A   Clear
4:55 PM 89.4 °F 94.8 °F 70.2 °F 53% 29.79 in 10.0 mi Calm Calm - N/A   Scattered Clouds
5:15 PM 90.5 °F 95.5 °F 69.3 °F 50% 29.79 in 10.0 mi SW 4.6 mph - N/A   Scattered Clouds
5:35 PM 89.8 °F 93.8 °F 68.5 °F 49% 29.80 in 10.0 mi SSW 8.1 mph - N/A   Scattered Clouds
5:55 PM 88.9 °F 93.0 °F 68.4 °F 51% 29.79 in 10.0 mi SSW 10.4 mph - N/A   Scattered Clouds
6:15 PM 87.8 °F 91.8 °F 68.9 °F 53% 29.79 in 10.0 mi SSW 5.8 mph - N/A   Clear
6:35 PM 86.2 °F 90.4 °F 69.4 °F 57% 29.79 in 10.0 mi SSW 3.5 mph - N/A   Clear
6:55 PM 85.3 °F 89.8 °F 70.2 °F 60% 29.79 in 10.0 mi SSW 3.5 mph - N/A   Scattered Clouds
7:15 PM 84.6 °F 89.7 °F 71.1 °F 64% 29.79 in 10.0 mi Calm Calm - N/A   Mostly Cloudy
7:35 PM 83.8 °F 88.9 °F 71.6 °F 66% 29.79 in 10.0 mi Calm Calm - N/A   Mostly Cloudy
7:55 PM 83.5 °F 88.5 °F 71.6 °F 67% 29.78 in 10.0 mi SSW 3.5 mph - N/A   Mostly Cloudy
8:15 PM 81.5 °F 86.7 °F 73.4 °F 76% 29.77 in 10.0 mi Calm Calm - N/A   Scattered Clouds
8:35 PM 81.5 °F 86.3 °F 72.3 °F 74% 29.79 in 10.0 mi NW 6.9 mph - N/A   Scattered Clouds
8:55 PM 78.8 °F - 70.7 °F 76% 29.81 in 10.0 mi NNW 5.8 mph - N/A   Scattered Clouds
9:15 PM 77.9 °F - 69.8 °F 76% 29.81 in 10.0 mi Calm Calm - N/A   Scattered Clouds
9:35 PM 77.9 °F - 69.8 °F 76% 29.82 in 10.0 mi Calm Calm - N/A   Mostly Cloudy
9:55 PM 76.8 °F - 69.8 °F 79% 29.82 in 10.0 mi Calm Calm - N/A   Mostly Cloudy
10:15 PM 76.3 °F - 68.9 °F 78% 29.82 in 10.0 mi Calm Calm - N/A   Scattered Clouds
10:35 PM 77.0 °F - 68.9 °F 76% 29.83 in 10.0 mi SE 3.5 mph - N/A   Mostly Cloudy
10:55 PM 76.5 °F - 68.9 °F 77% 29.84 in 10.0 mi SSE 3.5 mph - N/A   Mostly Cloudy
11:15 PM 76.1 °F - 69.1 °F 79% 29.83 in 10.0 mi Calm Calm - N/A   Scattered Clouds
11:35 PM 75.4 °F - 69.6 °F 82% 29.83 in 10.0 mi SSE 3.5 mph - N/A   Clear